Station CHYW1 - 9449424 - Cherry Point, WA Image indicating link to RSS feed of recent meteorological observations for station CHYW1


Conditions at CHYW1 as of
(1:48 am PDT)
0848 GMT on 05/29/2024:
     

Click on the graph icon in the table below to see a time series plot of the last five days of that observation.

5-day plot - Atmospheric Pressure Atmospheric Pressure (PRES):30.19 in
NOS Water Level Observation Network Water Level
Previous observations
TIME
(PDT)
5-day plot - Wind Direction
WDIR
 
5-day plot - Wind Speed
WSPD
kts
5-day plot - Wind Gust
GST
kts
5-day plot - Wave Height
WVHT
ft
5-day plot - Dominant Wave Period
DPD
sec
5-day plot - Average Wave Period
APD
sec
5-day plot - Mean Wave Direction
MWD
 
5-day plot - Atmospheric Pressure
PRES
in
5-day plot - Pressure Tendency
PTDY
in
5-day plot - Air Temperature
ATMP
°F
5-day plot - Water Temperature
WTMP
°F
5-day plot - Dew Point
DEWP
°F
5-day plot - Salinity
SAL
psu
5-day plot - Visibility
VIS
nmi
5-day plot - Tide (above MLLW)
TIDE
ft
2024-05-29 01:42 am-------30.19-------
2024-05-29 01:36 am-------30.19-------
2024-05-29 01:30 am-------30.19-------
2024-05-29 01:24 am-------30.19-------
2024-05-29 01:18 am-------30.19-------
2024-05-29 01:12 am-------30.19-------
2024-05-29 01:06 am-------30.19-------
2024-05-29 01:00 am-------30.19+0.03------
2024-05-29 12:54 am-------30.19-------
2024-05-29 12:48 am-------30.19-------
2024-05-29 12:42 am-------30.19-------
2024-05-29 12:36 am-------30.18-------
2024-05-29 12:30 am-------30.18-------
2024-05-29 12:24 am-------30.18-------
2024-05-29 12:18 am-------30.18-------
2024-05-29 12:12 am-------30.18-------
2024-05-29 12:06 am-------30.18-------
2024-05-29 12:00 am-------30.17+0.04------
2024-05-28 11:54 pm-------30.17-------
2024-05-28 11:48 pm-------30.17-------
2024-05-28 11:42 pm-------30.17-------
2024-05-28 11:36 pm-------30.17-------
2024-05-28 11:30 pm-------30.17-------
2024-05-28 11:24 pm-------30.17-------
2024-05-28 11:18 pm-------30.16-------
2024-05-28 11:12 pm-------30.16-------
2024-05-28 11:06 pm-------30.16-------
2024-05-28 11:00 pm-------30.16+0.03------
2024-05-28 10:54 pm-------30.16-------
2024-05-28 10:48 pm-------30.16-------
2024-05-28 10:42 pm-------30.17-------
2024-05-28 10:36 pm-------30.16-------
2024-05-28 10:30 pm-------30.16-------
2024-05-28 10:24 pm-------30.16-------
2024-05-28 10:18 pm-------30.16-------
2024-05-28 10:12 pm-------30.16-------
2024-05-28 10:06 pm-------30.16-------
2024-05-28 10:00 pm-------30.16+0.03------
2024-05-28 09:54 pm-------30.16-------
2024-05-28 09:48 pm-------30.15-------
2024-05-28 09:42 pm-------30.15-------
2024-05-28 09:36 pm-------30.15-------
2024-05-28 09:30 pm-------30.15-------
2024-05-28 09:24 pm-------30.15-------
2024-05-28 09:18 pm-------30.14-------
2024-05-28 09:12 pm-------30.14-------
2024-05-28 09:06 pm-------30.14-------
2024-05-28 09:00 pm-------30.14+0.03------
2024-05-28 08:54 pm-------30.14-------
2024-05-28 08:48 pm-------30.13-------
2024-05-28 08:42 pm-------30.14-------
2024-05-28 08:36 pm-------30.14-------
2024-05-28 08:30 pm-------30.13-------
2024-05-28 08:24 pm-------30.14-------
2024-05-28 08:18 pm-------30.14-------
2024-05-28 08:12 pm-------30.13-------
2024-05-28 08:06 pm-------30.13-------
2024-05-28 08:00 pm-------30.13+0.03------
2024-05-28 07:54 pm-------30.13-------
2024-05-28 07:48 pm-------30.13-------
2024-05-28 07:42 pm-------30.13-------
2024-05-28 07:36 pm-------30.13-------
2024-05-28 07:30 pm-------30.13-------
2024-05-28 07:24 pm-------30.13-------
2024-05-28 07:18 pm-------30.13-------
2024-05-28 07:12 pm-------30.13-------
2024-05-28 07:06 pm-------30.12-------
2024-05-28 07:00 pm-------30.12+0.02------
2024-05-28 06:54 pm-------30.12-------
2024-05-28 06:48 pm-------30.11-------
2024-05-28 06:42 pm-------30.11-------
2024-05-28 06:36 pm-------30.11-------
2024-05-28 06:30 pm-------30.11-------
2024-05-28 06:24 pm-------30.11-------
2024-05-28 06:18 pm-------30.11-------
2024-05-28 06:12 pm-------30.11-------
2024-05-28 06:06 pm-------30.11-------
2024-05-28 06:00 pm-------30.11+0.01------
2024-05-28 05:54 pm-------30.11-------
2024-05-28 05:48 pm-------30.11-------
2024-05-28 05:42 pm-------30.11-------
2024-05-28 05:36 pm-------30.11-------
2024-05-28 05:30 pm-------30.11-------
2024-05-28 05:24 pm-------30.11-------
2024-05-28 05:18 pm-------30.11-------
2024-05-28 05:12 pm-------30.11-------
2024-05-28 05:06 pm-------30.11-------
2024-05-28 05:00 pm-------30.11+0.02------
2024-05-28 04:54 pm-------30.11-------
2024-05-28 04:48 pm-------30.11-------
2024-05-28 04:42 pm-------30.11-------
2024-05-28 04:36 pm-------30.10-------
2024-05-28 04:30 pm-------30.11-------
2024-05-28 04:24 pm-------30.11-------
2024-05-28 04:18 pm-------30.11-------
2024-05-28 04:12 pm-------30.11-------
2024-05-28 04:06 pm-------30.10-------
2024-05-28 04:00 pm-------30.10+0.02------
2024-05-28 03:54 pm-------30.10-------
2024-05-28 03:48 pm-------30.11-------
2024-05-28 03:42 pm-------30.10-------
2024-05-28 03:36 pm-------30.10-------
2024-05-28 03:30 pm-------30.10-------
2024-05-28 03:24 pm-------30.10-------
2024-05-28 03:18 pm-------30.10-------
2024-05-28 03:12 pm-------30.10-------
2024-05-28 03:06 pm-------30.10-------
2024-05-28 03:00 pm-------30.10+0.03------
2024-05-28 02:54 pm-------30.10-------
2024-05-28 02:48 pm-------30.09-------
2024-05-28 02:42 pm-------30.09-------
2024-05-28 02:36 pm-------30.09-------
2024-05-28 02:30 pm-------30.09-------
2024-05-28 02:24 pm-------30.09-------
2024-05-28 02:18 pm-------30.09-------
2024-05-28 02:12 pm-------30.09-------
2024-05-28 02:06 pm-------30.09-------
2024-05-28 02:00 pm-------30.09+0.03------
2024-05-28 01:54 pm-------30.09-------
2024-05-28 01:48 pm-------30.09-------
2024-05-28 01:42 pm-------30.09-------
2024-05-28 01:36 pm-------30.09-------
2024-05-28 01:30 pm-------30.09-------
2024-05-28 01:24 pm-------30.09-------
2024-05-28 01:18 pm-------30.09-------
2024-05-28 01:12 pm-------30.08-------
2024-05-28 01:06 pm-------30.08-------
2024-05-28 01:00 pm-------30.08+0.03------
2024-05-28 12:54 pm-------30.08-------
2024-05-28 12:48 pm-------30.08-------
2024-05-28 12:42 pm-------30.08-------
2024-05-28 12:36 pm-------30.08-------
2024-05-28 12:30 pm-------30.08-------
2024-05-28 12:24 pm-------30.08-------
2024-05-28 12:18 pm-------30.07-------
2024-05-28 12:12 pm-------30.07-------
2024-05-28 12:06 pm-------30.07-------
2024-05-28 12:00 pm-------30.07+0.02------
2024-05-28 11:54 am-------30.07-------
2024-05-28 11:48 am-------30.07-------
2024-05-28 11:42 am-------30.07-------
2024-05-28 11:36 am-------30.07-------
2024-05-28 11:30 am-------30.06-------
2024-05-28 11:24 am-------30.06-------
2024-05-28 11:18 am-------30.06-------
2024-05-28 11:12 am-------30.06-------
2024-05-28 11:06 am-------30.06-------
2024-05-28 11:00 am-------30.06+0.01------
2024-05-28 10:54 am-------30.06-------
2024-05-28 10:48 am-------30.06-------
2024-05-28 10:42 am-------30.06-------
2024-05-28 10:36 am-------30.05-------
2024-05-28 10:30 am-------30.06-------
2024-05-28 10:24 am-------30.05-------
2024-05-28 10:18 am-------30.05-------
2024-05-28 10:12 am-------30.05-------
2024-05-28 10:06 am-------30.05-------
2024-05-28 10:00 am-------30.05+0.01------
2024-05-28 09:54 am-------30.05-------
2024-05-28 09:48 am-------30.05-------
2024-05-28 09:42 am-------30.05-------
2024-05-28 09:36 am-------30.05-------
2024-05-28 09:30 am-------30.05-------
2024-05-28 09:24 am-------30.05-------
2024-05-28 09:18 am-------30.05-------
2024-05-28 09:12 am-------30.05-------
2024-05-28 09:06 am-------30.05-------
2024-05-28 09:00 am-------30.05+0.02------
2024-05-28 08:54 am-------30.05-------
2024-05-28 08:48 am-------30.05-------
2024-05-28 08:42 am-------30.05-------
2024-05-28 08:36 am-------30.05-------
2024-05-28 08:30 am-------30.05-------
2024-05-28 08:24 am-------30.05-------
2024-05-28 08:18 am-------30.05-------
2024-05-28 08:12 am-------30.05-------
2024-05-28 08:06 am-------30.05-------
2024-05-28 08:00 am-------30.04+0.02------
2024-05-28 07:54 am-------30.04-------
2024-05-28 07:48 am-------30.05-------
2024-05-28 07:42 am-------30.04-------
2024-05-28 07:36 am-------30.04-------
2024-05-28 07:30 am-------30.04-------
2024-05-28 07:24 am-------30.04-------
2024-05-28 07:18 am-------30.04-------
2024-05-28 07:12 am-------30.04-------
2024-05-28 07:06 am-------30.04-------
2024-05-28 07:00 am-------30.04+0.01------
2024-05-28 06:54 am-------30.04-------
2024-05-28 06:48 am-------30.04-------
2024-05-28 06:42 am-------30.04-------
2024-05-28 06:36 am-------30.04-------
2024-05-28 06:30 am-------30.03-------
2024-05-28 06:24 am-------30.03-------
2024-05-28 06:18 am-------30.03-------
2024-05-28 06:12 am-------30.03-------
2024-05-28 06:06 am-------30.03-------
2024-05-28 06:00 am-------30.03+0.00------
2024-05-28 05:54 am-------30.03-------
2024-05-28 05:48 am-------30.03-------
2024-05-28 05:42 am-------30.03-------
2024-05-28 05:36 am-------30.03-------
2024-05-28 05:30 am-------30.02-------
2024-05-28 05:24 am-------30.02-------
2024-05-28 05:18 am-------30.03-------
2024-05-28 05:12 am-------30.02-------
2024-05-28 05:06 am-------30.02-------
2024-05-28 05:00 am-------30.02-0.02------
2024-05-28 04:54 am-------30.02-------
2024-05-28 04:48 am-------30.02-------
2024-05-28 04:42 am-------30.02-------
2024-05-28 04:36 am-------30.02-------
2024-05-28 04:30 am-------30.02-------
2024-05-28 04:24 am-------30.02-------
2024-05-28 04:18 am-------30.02-------
2024-05-28 04:12 am-------30.02-------
2024-05-28 04:06 am-------30.02-------
2024-05-28 04:00 am-------30.03-0.02------
2024-05-28 03:54 am-------30.03-------
2024-05-28 03:48 am-------30.03-------
2024-05-28 03:42 am-------30.03-------
2024-05-28 03:36 am-------30.03-------
2024-05-28 03:30 am-------30.03-------
2024-05-28 03:24 am-------30.03-------
2024-05-28 03:18 am-------30.03-------
2024-05-28 03:12 am-------30.03-------
2024-05-28 03:06 am-------30.03-------
2024-05-28 03:00 am-------30.03-0.03------
2024-05-28 02:54 am-------30.03-------
2024-05-28 02:48 am-------30.03-------
2024-05-28 02:42 am-------30.03-------
2024-05-28 02:36 am-------30.03-------
2024-05-28 02:30 am-------30.03-------
2024-05-28 02:24 am-------30.04-------
2024-05-28 02:18 am-------30.04-------
2024-05-28 02:12 am-------30.04-------
2024-05-28 02:06 am-------30.04-------
2024-05-28 02:00 am-------30.04-0.03------
2024-05-28 01:54 am-------30.04-------